TimeEST,TemperatureF,Dew PointF,Humidity,Sea Level PressureIn,VisibilityMPH,Wind Direction,Wind SpeedMPH,Gust SpeedMPH,PrecipitationIn,Events,Conditions,WindDirDegrees,DateUTC
12:53 AM,57.9,55.9,93,30.11,10.0,North,8.1,-,N/A,,Clear,360,2013-02-09 05:53:00
1:53 AM,57.0,55.0,93,30.11,10.0,North,6.9,-,N/A,,Clear,360,2013-02-09 06:53:00
2:53 AM,54.0,53.1,97,30.09,6.0,NE,4.6,-,N/A,,Clear,40,2013-02-09 07:53:00
3:05 AM,53.6,53.6,100,30.08,1.8,NE,4.6,-,N/A,,Clear,40,2013-02-09 08:05:00
3:19 AM,53.6,51.8,94,30.09,3.0,NNE,5.8,-,N/A,,Clear,30,2013-02-09 08:19:00
3:27 AM,51.8,51.8,100,30.09,1.8,NE,4.6,-,N/A,,Clear,40,2013-02-09 08:27:00
3:36 AM,51.8,51.8,100,30.09,0.5,NE,4.6,-,N/A,Fog,Fog,40,2013-02-09 08:36:00
3:50 AM,51.8,51.8,100,30.09,0.5,NNE,3.5,-,N/A,Fog,Fog,30,2013-02-09 08:50:00
3:53 AM,52.0,51.1,97,30.09,0.5,NNE,3.5,-,N/A,Fog,Fog,20,2013-02-09 08:53:00
4:02 AM,53.6,51.8,94,30.09,1.2,NNE,4.6,-,N/A,,Partly Cloudy,30,2013-02-09 09:02:00
4:34 AM,51.8,51.8,100,30.10,3.0,NNE,4.6,-,N/A,,Clear,30,2013-02-09 09:34:00
4:50 AM,53.6,51.8,94,30.10,4.0,North,4.6,-,N/A,,Scattered Clouds,10,2013-02-09 09:50:00
4:53 AM,54.0,53.1,97,30.11,4.0,NNE,4.6,-,N/A,,Mostly Cloudy,20,2013-02-09 09:53:00
4:59 AM,55.4,53.6,94,30.10,3.0,NNE,8.1,-,N/A,,Mostly Cloudy,30,2013-02-09 09:59:00
5:10 AM,55.4,55.4,100,30.11,2.0,NNE,8.1,-,N/A,,Overcast,30,2013-02-09 10:10:00
5:16 AM,55.4,55.4,100,30.11,0.8,NNE,9.2,-,N/A,,Overcast,30,2013-02-09 10:16:00
5:53 AM,55.9,55.0,97,30.13,0.5,NNE,9.2,-,0.01,Fog,Fog,30,2013-02-09 10:53:00
6:04 AM,55.4,53.6,94,30.13,2.0,NNE,9.2,-,N/A,,Overcast,20,2013-02-09 11:04:00
6:11 AM,55.4,53.6,94,30.13,3.0,NNE,11.5,-,N/A,,Overcast,20,2013-02-09 11:11:00
6:17 AM,55.4,53.6,94,30.13,1.8,NNE,10.4,-,N/A,,Overcast,20,2013-02-09 11:17:00
6:34 AM,55.4,55.4,100,30.14,3.0,NNE,9.2,-,N/A,,Overcast,30,2013-02-09 11:34:00
6:53 AM,55.0,55.0,100,30.14,5.0,NNE,8.1,-,N/A,,Mostly Cloudy,30,2013-02-09 11:53:00
7:01 AM,55.4,53.6,94,30.15,6.0,NNE,8.1,-,N/A,,Scattered Clouds,30,2013-02-09 12:01:00
7:53 AM,55.9,54.0,93,30.17,9.0,NNE,10.4,-,N/A,,Partly Cloudy,30,2013-02-09 12:53:00
8:53 AM,60.1,55.0,83,30.19,10.0,NNE,12.7,-,N/A,,Clear,30,2013-02-09 13:53:00
10:53 AM,71.1,54.0,55,30.19,10.0,NE,15.0,-,N/A,,Clear,40,2013-02-09 15:53:00
11:53 AM,75.0,55.0,50,30.19,10.0,ENE,13.8,-,N/A,,Clear,60,2013-02-09 16:53:00
12:53 PM,77.0,55.0,47,30.17,10.0,ENE,10.4,18.4,N/A,,Clear,60,2013-02-09 17:53:00
1:53 PM,80.1,54.0,40,30.14,10.0,ENE,11.5,-,N/A,,Clear,60,2013-02-09 18:53:00
2:53 PM,81.0,53.1,38,30.14,10.0,NE,11.5,16.1,N/A,,Clear,40,2013-02-09 19:53:00
3:53 PM,80.1,54.0,40,30.12,10.0,ENE,9.2,-,N/A,,Partly Cloudy,70,2013-02-09 20:53:00
4:53 PM,79.0,54.0,42,30.13,10.0,ENE,11.5,-,N/A,,Clear,60,2013-02-09 21:53:00
5:53 PM,75.0,54.0,48,30.14,10.0,ENE,9.2,-,N/A,,Clear,60,2013-02-09 22:53:00
6:53 PM,66.9,55.0,66,30.14,10.0,ENE,6.9,-,N/A,,Partly Cloudy,60,2013-02-09 23:53:00
7:53 PM,69.1,55.0,61,30.17,10.0,ENE,12.7,-,N/A,,Partly Cloudy,70,2013-02-10 00:53:00
8:53 PM,66.0,57.0,73,30.19,10.0,East,10.4,-,N/A,,Partly Cloudy,80,2013-02-10 01:53:00
9:53 PM,64.9,57.9,78,30.20,10.0,ENE,9.2,-,N/A,,Partly Cloudy,70,2013-02-10 02:53:00
10:53 PM,64.9,57.9,78,30.20,10.0,East,10.4,-,N/A,,Mostly Cloudy,80,2013-02-10 03:53:00
11:53 PM,62.1,57.9,86,30.21,10.0,ENE,6.9,-,N/A,,Clear,70,2013-02-10 04:53:00